DEHEN EDFM-EDFM

Flight info

Callsign DEHEN
Flight time 0h 21m
Altitude
Route
Aircraft C172

Departure

Time 2026-05-08 19:17
Airport Mannheim-City Airport (EDFM)

Arrival

Time 2026-05-08 19:38
Airport Mannheim-City Airport (EDFM)
Time Latitude Longitude Altitude Speed Heading
2026-05-08 19:10 49.47561 8.52029 313 ft 0 kts 183°
2026-05-08 19:10 49.47559 8.52029 313 ft 2 kts 183°
2026-05-08 19:11 49.47542 8.52063 313 ft 7 kts 90°
2026-05-08 19:11 49.47539 8.52130 313 ft 6 kts 99°
2026-05-08 19:11 49.47520 8.52170 313 ft 7 kts 180°
2026-05-08 19:11 49.47464 8.52165 313 ft 8 kts 185°
2026-05-08 19:12 49.47421 8.52162 314 ft 6 kts 183°
2026-05-08 19:12 49.47363 8.52157 314 ft 6 kts 182°
2026-05-08 19:12 49.47310 8.52152 312 ft 9 kts 184°
2026-05-08 19:12 49.47243 8.52142 311 ft 9 kts 199°
2026-05-08 19:13 49.47203 8.52088 311 ft 7 kts 245°
2026-05-08 19:13 49.47199 8.52005 312 ft 10 kts 272°
2026-05-08 19:13 49.47204 8.51865 311 ft 17 kts 274°
2026-05-08 19:13 49.47212 8.51659 309 ft 19 kts 274°
2026-05-08 19:14 49.47217 8.51480 311 ft 15 kts 272°
2026-05-08 19:14 49.47223 8.51337 310 ft 13 kts 272°
2026-05-08 19:14 49.47227 8.51181 309 ft 15 kts 274°
2026-05-08 19:14 49.47233 8.51021 312 ft 14 kts 274°
2026-05-08 19:15 49.47238 8.50880 313 ft 12 kts 272°
2026-05-08 19:15 49.47241 8.50782 311 ft 6 kts 276°
2026-05-08 19:15 49.47247 8.50757 311 ft 0 kts 297°
2026-05-08 19:16 49.47252 8.50742 311 ft 7 kts 301°
2026-05-08 19:16 49.47290 8.50670 312 ft 7 kts 23°
2026-05-08 19:16 49.47287 8.50966 314 ft 54 kts 94°
2026-05-08 19:16 49.47255 8.51713 381 ft 78 kts 102°
2026-05-08 19:17 49.46883 8.52188 601 ft 77 kts 186°
2026-05-08 19:17 49.46341 8.52119 812 ft 80 kts 186°
2026-05-08 19:17 49.45754 8.52048 971 ft 91 kts 186°
2026-05-08 19:17 49.45087 8.51969 1118 ft 100 kts 185°
2026-05-08 19:18 49.44371 8.51910 1271 ft 105 kts 184°
2026-05-08 19:18 49.43638 8.51880 1433 ft 107 kts 182°
2026-05-08 19:18 49.42870 8.51868 1541 ft 112 kts 182°
2026-05-08 19:18 49.42078 8.51852 1649 ft 115 kts 182°
2026-05-08 19:19 49.41275 8.51836 1763 ft 115 kts 182°
2026-05-08 19:19 49.40479 8.51793 1890 ft 114 kts 184°
2026-05-08 19:19 49.39683 8.51837 1977 ft 117 kts 173°
2026-05-08 19:19 49.38916 8.52046 2041 ft 104 kts 170°
2026-05-08 19:20 49.38205 8.52272 2015 ft 106 kts 169°
2026-05-08 19:20 49.37963 8.52352 2018 ft 111 kts 169°
2026-05-08 19:20 49.36627 8.52814 2087 ft 121 kts 169°
2026-05-08 19:20 49.35803 8.53068 2114 ft 124 kts 171°
2026-05-08 19:21 49.34963 8.53378 2136 ft 125 kts 165°
2026-05-08 19:21 49.34139 8.53818 2150 ft 126 kts 159°
2026-05-08 19:21 49.33332 8.54338 2145 ft 128 kts 161°
2026-05-08 19:21 49.32479 8.54799 2070 ft 132 kts 162°
2026-05-08 19:22 49.31613 8.55257 2028 ft 131 kts 163°
2026-05-08 19:22 49.30734 8.55660 1943 ft 133 kts 166°
2026-05-08 19:22 49.29864 8.56036 1979 ft 127 kts 165°
2026-05-08 19:22 49.29013 8.56406 1975 ft 128 kts 166°
2026-05-08 19:23 49.28172 8.56784 2013 ft 126 kts 165°
2026-05-08 19:23 49.27341 8.57192 2037 ft 126 kts 163°
2026-05-08 19:23 49.26499 8.57570 2066 ft 124 kts 169°
2026-05-08 19:23 49.25643 8.57608 2119 ft 123 kts 192°
2026-05-08 19:24 49.24883 8.57058 2164 ft 122 kts 221°
2026-05-08 19:24 49.24346 8.56043 2149 ft 125 kts 239°
2026-05-08 19:24 49.23998 8.54838 2169 ft 124 kts 255°
2026-05-08 19:24 49.23894 8.53545 2177 ft 124 kts 271°
2026-05-08 19:25 49.23932 8.52216 2156 ft 126 kts 275°
2026-05-08 19:25 49.24210 8.50988 2216 ft 122 kts 301°
2026-05-08 19:25 49.24662 8.49905 2072 ft 120 kts 304°
2026-05-08 19:25 49.25155 8.48901 1961 ft 119 kts 308°
2026-05-08 19:26 49.25711 8.47914 1759 ft 124 kts 314°
2026-05-08 19:26 49.26367 8.47039 1543 ft 125 kts 326°
2026-05-08 19:26 49.27136 8.46457 1234 ft 121 kts 342°
2026-05-08 19:26 49.27978 8.46180 958 ft 128 kts 346°
2026-05-08 19:27 49.28787 8.45879 683 ft 113 kts 345°
2026-05-08 19:27 49.29515 8.45574 407 ft 103 kts 345°
2026-05-08 19:27 49.30153 8.45311 329 ft 95 kts 345°
2026-05-08 19:27 49.30803 8.45043 526 ft 99 kts 345°
2026-05-08 19:28 49.31475 8.44750 721 ft 101 kts 344°
2026-05-08 19:28 49.32160 8.44449 905 ft 102 kts 345°
2026-05-08 19:28 49.32860 8.44181 1080 ft 104 kts 346°
2026-05-08 19:28 49.33557 8.43911 1271 ft 104 kts 345°
2026-05-08 19:29 49.34026 8.43729 1373 ft 106 kts 347°
2026-05-08 19:29 49.34782 8.43634 1502 ft 110 kts
2026-05-08 19:29 49.35551 8.43703 1664 ft 110 kts
2026-05-08 19:29 49.36561 8.43912 1879 ft 109 kts
2026-05-08 19:30 49.37061 8.44049 1957 ft 111 kts 10°
2026-05-08 19:30 49.37829 8.44261 2086 ft 112 kts 10°
2026-05-08 19:30 49.38615 8.44478 2165 ft 116 kts
2026-05-08 19:30 49.39422 8.44679 2233 ft 119 kts
2026-05-08 19:31 49.40256 8.44872 2258 ft 123 kts
2026-05-08 19:31 49.41099 8.45066 2336 ft 122 kts
2026-05-08 19:31 49.41936 8.45251 2376 ft 123 kts
2026-05-08 19:31 49.42804 8.45466 2326 ft 129 kts 10°
2026-05-08 19:32 49.43700 8.45702 2232 ft 133 kts
2026-05-08 19:32 49.44621 8.45957 2116 ft 134 kts 11°
2026-05-08 19:32 49.45473 8.46232 1973 ft 123 kts 12°
2026-05-08 19:32 49.46310 8.46508 1760 ft 124 kts 11°
2026-05-08 19:33 49.47120 8.46913 1569 ft 123 kts 35°
2026-05-08 19:33 49.47426 8.47974 1226 ft 100 kts 97°
2026-05-08 19:33 49.47380 8.48927 897 ft 79 kts 95°
2026-05-08 19:33 49.47327 8.49773 634 ft 79 kts 96°
2026-05-08 19:34 49.47293 8.50740 318 ft 93 kts 93°
2026-05-08 19:34 49.47256 8.51722 391 ft 96 kts 95°
2026-05-08 19:34 49.47178 8.52759 584 ft 102 kts 97°
2026-05-08 19:34 49.46914 8.53735 796 ft 102 kts 140°
2026-05-08 19:35 49.46246 8.53971 951 ft 102 kts 202°
2026-05-08 19:35 49.45831 8.53135 1101 ft 104 kts 264°
2026-05-08 19:35 49.45875 8.51988 1224 ft 109 kts 276°
2026-05-08 19:35 49.45981 8.50819 1359 ft 110 kts 279°
2026-05-08 19:36 49.46120 8.49647 1473 ft 113 kts 282°
2026-05-08 19:36 49.46289 8.48461 1582 ft 114 kts 284°
2026-05-08 19:36 49.46512 8.47273 1651 ft 118 kts 297°
2026-05-08 19:36 49.47089 8.46392 1698 ft 122 kts 333°
2026-05-08 19:37 49.47607 8.46726 1580 ft 103 kts 111°
2026-05-08 19:37 49.47383 8.47700 1272 ft 87 kts 96°
2026-05-08 19:37 49.47356 8.48557 1004 ft 77 kts 93°
2026-05-08 19:37 49.47332 8.49367 775 ft 76 kts 93°
2026-05-08 19:38 49.47304 8.50187 514 ft 72 kts 117°
2026-05-08 19:38 49.47285 8.50921 314 ft 59 kts 94°
2026-05-08 19:38 49.47268 8.51445 310 ft 41 kts 93°
2026-05-08 19:38 49.47256 8.51844 310 ft 31 kts 93°
2026-05-08 19:39 49.47265 8.52040 312 ft 8 kts 30°
2026-05-08 19:39 49.47287 8.52058 311 ft 0 kts 46°
2026-05-08 19:39 49.47296 8.52067 311 ft 5 kts 20°
2026-05-08 19:39 49.47324 8.52112 312 ft 7 kts 49°
2026-05-08 19:40 49.47369 8.52119 313 ft 9 kts 354°
2026-05-08 19:40 49.47445 8.52118 312 ft 14 kts 360°
2026-05-08 19:40 49.47524 8.52126 313 ft 6 kts 359°
2026-05-08 19:40 49.47558 8.52125 313 ft 9 kts 15°
2026-05-08 19:41 49.47557 8.52110 313 ft 0 kts 180°